Weather History for Shelby, NC

Change the Weather History Date:

Wednesday, January 22, 2014

  Actual Average (KHKY) Record (KHKY)
Temperature  
Mean Temperature 27 °F -  
Max Temperature 35 °F 47 °F 70 °F (1967)
Min Temperature 19 °F 28 °F 4 °F (1970)
Degree Days  
Heating Degree Days 38    
Moisture  
Dew Point 2 °F    
Average Humidity 37    
Maximum Humidity 58    
Minimum Humidity 14    
Precipitation  
Precipitation 0.00 in - - ()
Sea Level Pressure  
Sea Level Pressure 29.98 in    
Wind  
Wind Speed 7 mph (WNW)    
Max Wind Speed 14 mph    
Max Gust Speed 20 mph    
Visibility 10 miles    
Events      
Averages and records for this station are not official NWS values.
T = Trace of Precipitation, MM = Missing Value Source: NWS Daily Summary

Daily Weather History Graph

Daily Weather History Graph

Search for Another Location

Airport:

Trip Planner

Search our weather history database for the weather conditions in past years. The results will help you decide how hot, cold, wet, or windy it might be!

Date:

Astronomy

Jan. 22, 2014 Rise Set
Actual Time 7:31 AM EST 5:44 PM EST
Civil Twilight 7:04 AM EST 6:11 PM EST
Nautical Twilight 6:33 AM EST 6:42 PM EST
Astronomical Twilight 6:03 AM EST 7:12 PM EST
Moon 11:59 PM EST (1/22) 10:47 AM EST (1/22)
Length of Visible Light 11h 07m
Length of Day
10h 12m
Waning Gibbous, 65% of the Moon is Illuminated
Jan 22
Waning Gibbous
Jan 24
Last Quarter
Jan 30
New
Feb 6
First Quarter
Feb 14
Full

Hourly Weather History & Observations

Time (EST) Temp. Windchill Dew Point Humidity Pressure Visibility Wind Dir Wind Speed Gust Speed Precip Events Conditions
12:18 AM 26.6 °F 15.7 °F 12.2 °F 55% 29.86 in 10.0 mi NW 12.7 mph - N/A   Clear
12:38 AM 26.6 °F 16.8 °F 12.2 °F 55% 29.87 in 10.0 mi NW 10.4 mph 19.6 mph N/A   Clear
12:58 AM 26.6 °F 15.2 °F 12.2 °F 55% 29.87 in 10.0 mi NNW 13.8 mph 18.4 mph N/A   Clear
1:18 AM 26.6 °F 16.2 °F 12.2 °F 55% 29.88 in 10.0 mi NW 11.5 mph 16.1 mph N/A   Clear
1:58 AM 26.6 °F 17.5 °F 12.2 °F 55% 29.89 in 10.0 mi NW 9.2 mph - N/A   Clear
2:18 AM 26.6 °F 17.5 °F 10.4 °F 51% 29.89 in 10.0 mi WNW 9.2 mph - N/A   Clear
2:38 AM 26.6 °F 20.0 °F 10.4 °F 51% 29.90 in 10.0 mi NNW 5.8 mph - N/A   Clear
2:58 AM 26.6 °F 18.2 °F 8.6 °F 47% 29.91 in 10.0 mi NNW 8.1 mph - N/A   Clear
3:18 AM 24.8 °F 16.9 °F 8.6 °F 50% 29.90 in 10.0 mi North 6.9 mph - N/A   Clear
3:38 AM 24.8 °F 19.1 °F 10.4 °F 54% 29.92 in 10.0 mi NW 4.6 mph - N/A   Clear
3:58 AM 24.8 °F 19.1 °F 8.6 °F 50% 29.92 in 10.0 mi NNW 4.6 mph - N/A   Clear
4:18 AM 24.8 °F 20.5 °F 8.6 °F 50% 29.92 in 10.0 mi NW 3.5 mph - N/A   Clear
4:39 AM 23.0 °F 13.1 °F 8.6 °F 54% 29.92 in 10.0 mi NW 9.2 mph - N/A   Clear
4:58 AM 21.2 °F 12.6 °F 8.6 °F 58% 29.92 in 10.0 mi NW 6.9 mph - N/A   Clear
5:18 AM 21.2 °F 13.6 °F 6.8 °F 54% 29.92 in 10.0 mi NNW 5.8 mph - N/A   Clear
5:38 AM 21.2 °F 13.6 °F 6.8 °F 54% 29.93 in 10.0 mi NNW 5.8 mph - N/A   Clear
5:58 AM 21.2 °F 14.9 °F 6.8 °F 54% 29.94 in 10.0 mi NNW 4.6 mph - N/A   Clear
6:18 AM 21.2 °F 12.6 °F 6.8 °F 54% 29.95 in 10.0 mi NNW 6.9 mph - N/A   Clear
6:38 AM 21.2 °F 16.4 °F 6.8 °F 54% 29.96 in 10.0 mi NNW 3.5 mph - N/A   Clear
6:59 AM 21.2 °F - 6.8 °F 54% 29.97 in 10.0 mi Calm Calm - N/A   Clear
7:18 AM 19.4 °F - 6.8 °F 58% 29.98 in 10.0 mi Calm Calm - N/A   Clear
7:38 AM 19.4 °F 14.3 °F 6.8 °F 58% 29.99 in 10.0 mi West 3.5 mph - N/A   Clear
7:59 AM 19.4 °F 14.3 °F 6.8 °F 58% 29.99 in 10.0 mi WNW 3.5 mph - N/A   Clear
8:18 AM 19.4 °F 12.8 °F 6.8 °F 58% 29.99 in 10.0 mi WNW 4.6 mph - N/A   Clear
8:39 AM 21.2 °F 13.6 °F 6.8 °F 54% 30.01 in 10.0 mi West 5.8 mph - N/A   Clear
8:58 AM 21.2 °F 12.6 °F 3.2 °F 46% 30.01 in 10.0 mi NW 6.9 mph - N/A   Clear
9:19 AM 23.0 °F 14.7 °F 3.2 °F 43% 30.03 in 10.0 mi NNW 6.9 mph - N/A   Clear
9:38 AM 24.8 °F 16.1 °F 1.4 °F 36% 30.03 in 10.0 mi WNW 8.1 mph - N/A   Clear
9:59 AM 24.8 °F 17.9 °F 3.2 °F 40% 30.04 in 10.0 mi West 5.8 mph - N/A   Clear
10:18 AM 24.8 °F 17.9 °F 1.4 °F 36% 30.04 in 10.0 mi West 5.8 mph - N/A   Clear
10:38 AM 24.8 °F 19.1 °F -0.4 °F 34% 30.04 in 10.0 mi West 4.6 mph - N/A   Clear
10:58 AM 26.6 °F 20.0 °F -2.2 °F 29% 30.05 in 10.0 mi WNW 5.8 mph - N/A   Clear
11:18 AM 28.4 °F 19.7 °F -2.2 °F 27% 30.05 in 10.0 mi WSW 9.2 mph - N/A   Clear
11:38 AM 28.4 °F 19.7 °F -2.2 °F 27% 30.04 in 10.0 mi WNW 9.2 mph - N/A   Clear
11:58 AM 28.4 °F 21.2 °F -0.4 °F 29% 30.03 in 10.0 mi WNW 6.9 mph - N/A   Clear
12:19 PM 30.2 °F 25.4 °F -0.4 °F 27% 30.01 in 10.0 mi WSW 4.6 mph - N/A   Clear
12:38 PM 30.2 °F 25.4 °F -0.4 °F 27% 30.01 in 10.0 mi WSW 4.6 mph - N/A   Clear
12:58 PM 30.2 °F 23.4 °F -0.4 °F 27% 29.99 in 10.0 mi West 6.9 mph - N/A   Clear
1:18 PM 30.2 °F - 1.4 °F 29% 29.97 in 10.0 mi Calm Calm - N/A   Clear
2:19 PM 33.8 °F 27.0 °F 3.2 °F 28% 29.97 in 10.0 mi WSW 8.1 mph - N/A   Clear
2:38 PM 32.0 °F - 3.2 °F 30% 29.97 in 10.0 mi Calm Calm - N/A   Clear
2:58 PM 33.8 °F 28.6 °F 3.2 °F 28% 29.97 in 10.0 mi South 5.8 mph - N/A   Clear
3:18 PM 33.8 °F 28.6 °F -2.2 °F 22% 29.96 in 10.0 mi WSW 5.8 mph - N/A   Clear
3:39 PM 33.8 °F 28.6 °F -2.2 °F 22% 29.95 in 10.0 mi SW 5.8 mph - N/A   Clear
3:58 PM 33.8 °F 29.6 °F -5.8 °F 18% 29.96 in 10.0 mi SSW 4.6 mph - N/A   Clear
4:18 PM 33.8 °F 30.8 °F -7.6 °F 17% 29.96 in 10.0 mi WNW 3.5 mph - N/A   Clear
4:39 PM 35.6 °F 29.9 °F -9.4 °F 14% 29.97 in 10.0 mi SW 6.9 mph - N/A   Clear
4:58 PM 33.8 °F 28.6 °F -9.4 °F 15% 29.97 in 10.0 mi SW 5.8 mph - N/A   Clear
5:18 PM 33.8 °F - -11.2 °F 14% 29.98 in 10.0 mi Calm Calm - N/A   Clear
5:38 PM 33.8 °F - -9.4 °F 15% 29.98 in 10.0 mi Calm Calm - N/A   Clear
5:58 PM 33.8 °F - -9.4 °F 15% 29.99 in 10.0 mi Calm Calm - N/A   Clear
6:38 PM 32.0 °F - -9.4 °F 17% 30.01 in 10.0 mi Calm Calm - N/A   Clear
6:58 PM 30.2 °F - -7.6 °F 19% 30.01 in 10.0 mi Calm Calm - N/A   Clear
7:19 PM 30.2 °F 26.7 °F -7.6 °F 19% 30.01 in 10.0 mi South 3.5 mph - N/A   Clear
7:39 PM 30.2 °F 26.7 °F -9.4 °F 18% 30.01 in 10.0 mi South 3.5 mph - N/A   Clear
7:58 PM 28.4 °F 24.6 °F -9.4 °F 19% 30.01 in 10.0 mi South 3.5 mph - N/A   Clear
8:18 PM 26.6 °F 21.2 °F -4.0 °F 26% 30.00 in 10.0 mi SSE 4.6 mph - N/A   Clear
8:38 PM 28.4 °F 23.3 °F -5.8 °F 23% 30.01 in 10.0 mi SSW 4.6 mph - N/A   Scattered Clouds
8:59 PM 28.4 °F 24.6 °F -2.2 °F 27% 30.02 in 10.0 mi SW 3.5 mph - N/A   Clear
9:18 PM 28.4 °F 23.3 °F -2.2 °F 27% 30.03 in 10.0 mi SSW 4.6 mph - N/A   Clear
9:38 PM 28.4 °F 23.3 °F -2.2 °F 27% 30.03 in 10.0 mi SW 4.6 mph - N/A   Scattered Clouds
9:58 PM 24.8 °F - 1.4 °F 36% 30.04 in 10.0 mi Calm Calm - N/A   Scattered Clouds
10:19 PM 26.6 °F - 1.4 °F 34% 30.04 in 10.0 mi Calm Calm - N/A   Clear
10:38 PM 24.8 °F - 3.2 °F 40% 30.04 in 10.0 mi Calm Calm - N/A   Clear
10:58 PM 26.6 °F 22.6 °F 3.2 °F 37% 30.05 in 10.0 mi WNW 3.5 mph - N/A   Clear
11:18 PM 24.8 °F 20.5 °F 3.2 °F 40% 30.05 in 10.0 mi NE 3.5 mph - N/A   Clear
11:38 PM 28.4 °F - 1.4 °F 31% 30.05 in 10.0 mi Calm Calm - N/A   Clear
11:59 PM 26.6 °F 18.2 °F 3.2 °F 37% 30.06 in 10.0 mi WNW 8.1 mph - N/A   Clear